Location: Astronomical Observatory "G. J. Rheticus" in Feltre (Italy)
(46.0730°N, 11.9276°E)
Time: 22:55:55
(UTC+01:00)

ISS - Visible Passes

Search period start: 12 November 2019 00:00
Search period end: 22 November 2019 00:00
Orbit: 412 x 421 km, 51.6° (Epoch: 13 November)

Date Brightness Start Highest point End Pass type
(mag) Time Alt. Az. Time Alt. Az. Time Alt. Az.
12 Nov -2.3 05:01:34 30° SSE 05:01:34 30° SSE 05:03:37 10° SE visible
13 Nov -1.4 05:48:32 11° SW 05:48:32 11° SW 05:49:31 10° SSW visible
20 Nov -1.1 18:28:56 10° SSE 18:29:00 10° SSE 18:29:00 10° SSE visible
21 Nov -0.8 19:15:21 10° SW 19:15:50 13° SW 19:15:50 13° SW visible
